Погода в Килинчах

Россия / Астраханская область     46°17′26″N   48°14′40″E
темп.,
°C
ветер,
м/с
пор.,
м/с
влажн.,
%
обл.,
%
осадки,
мм/ч
давл.,
гПа
погр.,
м
25 июня, сб
сб2501:00+21зюз335711 0.0 100927
04:00+20с334786 0.0 101032
07:00+22ссз244497 0.0 1010141
10:00+29сз3329100 0.0 10111399
13:00+31з3223100 0.0 10092386
16:00+33зсз222298 0.0 10082778
19:00+32ю33245 0.0 10081519
22:00+24юз33399 0.0 100939
26 июня, вс
вс2601:00+24сз334296 0.0 100827
04:00+22ссв355451 0.0 100895
07:00+26св61050100 0.0 1008473
10:00+32всв663157 0.0 10082060
13:00+36всв662448 0.0 10072978
16:00+36вюв882571 0.0 10062729
19:00+33в682960 0.0 10061642
22:00+29св6133281 0.0 1008755
27 июня, пн
пн2701:00+28всв9152580 0.1 1010885
04:00+25св8142993 0.1 1011658
07:00+24св8133690 0.0 1012635
10:00+29св9102747 0.0 10121200
13:00+32всв8819100 0.0 10121782
16:00+32всв7818100 0.1 10111791
19:00+30в682326 0.0 10111105
22:00+23всв343471 0.1 101252
28 июня, вт
вт2801:00+21св4845100 0.9 1012119
04:00+20всв3453100 1.6 101271
07:00+21ссв3844100 0.0 1012265
10:00+27св6726100 0.0 10111131
13:00+30св6718100 0.0 10111525
16:00+32ссв561588 0.0 10101943
19:00+32св581817 0.0 10102000
22:00+26ююз223071 0.0 101027
29 июня, ср
ср2901:00+25всв51151100 0.0 1011452
04:00+22всв7113691 0.0 1013541
07:00+20св710334 0.1 1015662
10:00+24св78264 0.1 10151113
13:00+27св66234 0.0 10151671
16:00+28ссв65164 0.0 10152014
19:00+26ссв65160 0.0 10151792
22:00+19ссв48255 0.0 1016134